Location: Franzen
(48.6167°N, 15.3833°E)
Time: 13:54:39
(UTC+00:00)

Cosmos 1655 Rocket - Pass Details

Date: 30 July 2021
Orbit: 969 x 1007 km, 82.9° (Epoch: 25 September)

Event Time Altitude Azimuth Distance (km) Brightness Sun altitude
Exits shadow 20:56:37 24° 169° (SSE) 1,922 5.0 -17.2°
Maximum altitude 21:00:31 66° 94° (E) 1,096 4.1 -17.6°
Drops below altitude 10° 21:06:52 10° 14° (NNE) 2,795 7.0 -18.1°
Sets 21:09:26 0° 12° (NNE) 3,750 7.8 -18.3°
